Weather WX

World > North America > United States > Mississippi

Farmington, Mississippi Regional Weather

Lat: 34.93N, Lon: 88.45W
Wx Zone: MSZ005
Feedback

Farmington, MS Regional Weather

Expires:201906201400;;785265
ASUS44 KJAN 201310
RWRMS 

MISSISSIPPI HOURLY WEATHER ROUNDUP
NATIONAL WEATHER SERVICE JACKSON MS
800 AM CDT THU JUN 20 2019

NOTE: "FAIR: INDICATES FEW OR NO CLOUDS BELOW 12,000 FEET WITH NO
SIGNIFICANT WEATHER AND/OR OBSTRUCTIONS TO VISIBILITY.


MSZ003>006-009-014>017-022>024-029>033-037>039-201400-
NORTHEAST MISSISSIPPI
  
CITY           SKY/WX    TMP DP  RH WIND       PRES   REMARKS
ABERDEEN       PTSUNNY   70  63  78 VRB7      29.83R                  
COLUMBUS AFB   PTSUNNY   72  68  88 NW18G28   29.80R                  
CORINTH        FAIR      72  68  88 SW6       29.77S                  
GOLDN TRIANGLE FAIR      73  69  87 S14       29.79S                  
STARKVILLE     FAIR      72  66  83 NW6G17    29.81R                  
TUPELO         FAIR      72  66  81 CALM      29.80R                  
$$


SKY/WX - Weather  TMP - Temperature  DP - Dew Point  RH - Relative Humidity
WIND - Wind Direction/Speed PRES - Barometric Pressure VSB - Visibility
WCI - Wind Chill Index E13G22 Wind - East Wind 13 mph/Gusts of 22 mph